Location: Maignaut
(43.8886°N, 0.4051°E)
Time: 02:57:23
(UTC+00:00)

Cosmos 1844 Rocket - Pass Details

Date: 17 January 2021
Orbit: 826 x 843 km, 71.0° (Epoch: 04 March)

Event Time Altitude Azimuth Distance (km) Brightness Sun altitude
Rises 18:57:40 0° 196° (SSW) 3,386 6.1 -22.8°
Reaches altitude 10° 19:00:07 10° 195° (SSW) 2,455 5.4 -23.2°
Maximum altitude 19:05:43 72° 112° (ESE) 888 2.5 -24.2°
Enters shadow 19:06:42 58° 55° (NE) 976 2.7 -24.4°
